Temp
-11 -11 -12 -12 -12 -12 -12 -12 -12 -12 -12 -12 -12 -12 -12 -12 -12 -12 -12 -13 -13 -13 -14 -14 -14 -14 -14 -14 -14 -15 -15 -15 -15 -15 -15 -15 -15 -15 -15 -15 -15 -16
-11 -12 -12 -12 -12 -12 -12 -12 -12 -12 -12 -12 -12 -13 -12 -12 -12 -13 -13 -13 -13 -14 -14 -14 -14 -14 -14 -14 -15 -15 -15 -15 -15 -15 -15 -15 -15 -15 -15 -15 -16 -16
-12 -12 -12 -12 -12 -12 -12 -12 -12 -12 -12 -12 -13 -13 -13 -12 -13 -13 -13 -13 -14 -14 -14 -14 -14 -14 -14 -15 -15 -15 -15 -15 -15 -15 -15 -15 -15 -15 -15 -16 -16 -16
-12 -12 -12 -12 -12 -12 -12 -12 -12 -12 -12 -12 -13 -13 -13 -13 -13 -13 -13 -13 -14 -14 -14 -14 -14 -14 -14 -15 -15 -15 -15 -15 -15 -15 -15 -15 -15 -15 -16 -16 -16 -16
-12 -12 -12 -12 -12 -12 -12 -12 -12 -12 -12 -12 -12 -12 -13 -13 -13 -13 -13 -13 -14 -14 -14 -14 -14 -14 -15 -15 -15 -15 -15 -15 -15 -15 -15 -15 -15 -16 -16 -16 -16 -16
-12 -12 -12 -12 -12 -12 -12 -12 -12 -12 -12 -12 -12 -12 -13 -13 -13 -13 -13 -13 -14 -14 -14 -14 -14 -14 -15 -15 -15 -15 -15 -15 -15 -15 -15 -15 -15 -16 -16 -16 -16 -16
-12 -12 -12 -12 -12 -12 -12 -12 -12 -12 -12 -12 -12 -12 -13 -13 -13 -13 -13 -13 -14 -14 -14 -14 -14 -15 -15 -15 -15 -15 -15 -15 -15 -15 -15 -15 -16 -16 -16 -16 -16 -16
-12 -12 -12 -12 -12 -12 -12 -12 -12 -13 -13 -12 -12 -12 -13 -13 -13 -13 -13 -13 -14 -14 -14 -14 -14 -14 -15 -15 -15 -15 -15 -15 -15 -15 -15 -15 -16 -16 -16 -16 -16 -16
-12 -12 -12 -12 -12 -12 -12 -12 -13 -13 -13 -13 -13 -13 -13 -13 -13 -13 -13 -14 -14 -14 -14 -14 -14 -14 -15 -15 -15 -15 -15 -15 -15 -15 -15 -15 -15 -16 -16 -16 -16 -16
-12 -12 -12 -12 -12 -12 -12 -12 -13 -13 -13 -13 -13 -13 -13 -13 -13 -13 -13 -14 -14 -14 -14 -14 -14 -15 -15 -15 -15 -15 -15 -15 -15 -15 -15 -15 -15 -16 -16 -16 -15 -15
-12 -12 -13 -13 -12 -12 -12 -13 -13 -13 -13 -13 -13 -13 -13 -13 -13 -13 -13 -14 -14 -14 -14 -15 -15 -15 -15 -15 -15 -15 -15 -15 -15 -15 -15 -15 -15 -16 -16 -15 -15 -15
-12 -13 -13 -13 -13 -13 -13 -13 -13 -13 -13 -13 -13 -13 -13 -13 -13 -13 -13 -14 -14 -14 -14 -15 -15 -15 -15 -15 -15 -15 -15 -15 -15 -15 -15 -15 -15 -15 -15 -15 -15 -15
-13 -13 -13 -13 -13 -13 -13 -13 -13 -13 -13 -13 -13 -13 -13 -13 -13 -13 -14 -14 -14 -14 -14 -15 -15 -15 -15 -15 -15 -15 -15 -15 -15 -15 -15 -15 -15 -15 -15 -15 -15 -15
-13 -13 -13 -13 -13 -13 -13 -13 -13 -13 -13 -13 -13 -13 -13 -13 -13 -14 -14 -14 -14 -14 -14 -14 -15 -15 -15 -15 -15 -15 -15 -15 -15 -15 -15 -15 -15 -15 -15 -15 -15 -15
-13 -13 -13 -13 -13 -13 -13 -13 -13 -13 -13 -13 -13 -13 -13 -13 -14 -14 -14 -14 -14 -14 -14 -14 -14 -15 -15 -15 -15 -15 -15 -15 -15 -15 -15 -15 -15 -15 -15 -15 -15 -15
-13 -13 -13 -13 -13 -13 -13 -13 -13 -13 -13 -13 -13 -13 -13 -13 -14 -14 -14 -14 -14 -14 -14 -14 -14 -15 -15 -15 -15 -15 -15 -15 -15 -15 -15 -15 -15 -15 -15 -15 -15 -15
-13 -13 -13 -13 -13 -13 -13 -13 -13 -13 -13 -13 -13 -13 -13 -13 -13 -14 -14 -14 -14 -14 -14 -14 -14 -15 -15 -15 -15 -15 -15 -15 -15 -15 -15 -15 -15 -15 -15 -15 -15 -16
-13 -13 -13 -13 -13 -13 -13 -13 -13 -13 -13 -13 -13 -13 -13 -13 -13 -14 -14 -14 -14 -14 -14 -14 -14 -14 -14 -14 -14 -15 -15 -15 -15 -15 -15 -15 -15 -15 -16 -16 -16 -16
-13 -13 -13 -13 -13 -13 -13 -13 -13 -13 -13 -13 -13 -13 -13 -13 -13 -13 -14 -14 -14 -14 -14 -14 -14 -14 -14 -14 -14 -15 -15 -15 -15 -15 -15 -15 -15 -15 -16 -16 -16 -16
-13 -13 -13 -13 -13 -13 -13 -13 -13 -13 -13 -13 -13 -13 -13 -13 -13 -14 -14 -14 -14 -14 -14 -14 -14 -14 -14 -14 -14 -15 -15 -15 -15 -15 -15 -15 -15 -15 -15 -16 -16 -16
-13 -13 -13 -13 -13 -13 -13 -13 -13 -13 -13 -13 -13 -13 -13 -13 -13 -14 -14 -14 -14 -14 -14 -14 -14 -14 -14 -15 -15 -15 -15 -15 -15 -15 -15 -15 -15 -15 -15 -16 -16 -16
-13 -13 -13 -13 -13 -13 -13 -13 -13 -13 -13 -13 -13 -13 -13 -13 -14 -14 -14 -14 -14 -14 -14 -15 -15 -15 -15 -15 -15 -15 -15 -15 -15 -15 -15 -15 -15 -15 -15 -16 -16 -16
-13 -13 -13 -13 -13 -13 -13 -13 -13 -14 -13 -13 -13 -13 -13 -14 -14 -14 -14 -14 -14 -15 -15 -15 -15 -15 -15 -15 -15 -15 -15 -15 -15 -15 -15 -15 -15 -15 -16 -16 -16 -16
-14 -14 -13 -13 -13 -13 -13 -14 -14 -14 -14 -14 -14 -14 -14 -14 -14 -14 -14 -14 -15 -15 -15 -15 -15 -15 -15 -15 -15 -15 -15 -15 -15 -15 -15 -15 -16 -16 -16 -16 -16 -16
-14 -14 -13 -13 -13 -13 -14 -14 -14 -14 -14 -14 -14 -14 -14 -14 -14 -14 -14 -15 -15 -15 -15 -15 -15 -15 -15 -15 -15 -15 -15 -15 -15 -15 -15 -16 -16 -16 -16 -16 -16 -16
-13 -14 -13 -13 -13 -13 -14 -14 -14 -14 -14 -14 -14 -14 -14 -14 -15 -15 -15 -15 -15 -15 -15 -15 -15 -15 -15 -15 -15 -15 -15 -15 -15 -15 -16 -16 -16 -16 -16 -16 -17 -17
Height
5807 5807 5807 5807 5808 5808 5809 5809 5809 5809 5808 5809 5809 5808 5808 5807 5807 5806 5806 5805 5805 5805 5805 5805 5805 5805 5805 5805 5804 5805 5805 5805 5805 5805 5805 5804 5803 5803 5802 5801 5800 5799
5804 5805 5805 5805 5805 5806 5806 5807 5807 5806 5806 5807 5807 5806 5806 5805 5805 5804 5804 5804 5803 5803 5803 5803 5803 5803 5803 5803 5803 5803 5803 5803 5803 5803 5803 5802 5801 5801 5800 5799 5798 5797
5801 5802 5802 5802 5803 5804 5804 5805 5804 5804 5804 5805 5805 5804 5804 5803 5803 5802 5802 5802 5802 5801 5801 5801 5801 5801 5801 5801 5801 5801 5801 5801 5801 5801 5800 5800 5799 5798 5797 5796 5795 5794
5799 5799 5800 5800 5801 5802 5802 5803 5802 5802 5802 5803 5803 5802 5801 5801 5801 5800 5800 5800 5800 5800 5799 5799 5799 5799 5799 5799 5799 5799 5800 5799 5799 5799 5798 5797 5797 5796 5795 5794 5793 5792
5796 5797 5798 5798 5799 5799 5800 5800 5800 5800 5800 5800 5800 5800 5799 5799 5798 5798 5798 5798 5798 5797 5797 5797 5797 5797 5797 5797 5797 5797 5798 5797 5797 5796 5796 5795 5794 5793 5793 5792 5791 5789
5794 5795 5795 5796 5796 5797 5798 5798 5798 5798 5798 5798 5798 5797 5797 5796 5796 5796 5796 5796 5795 5795 5795 5795 5795 5795 5795 5795 5795 5795 5795 5795 5795 5794 5793 5793 5792 5791 5790 5789 5788 5787
5791 5792 5793 5793 5794 5795 5795 5795 5795 5795 5795 5795 5795 5795 5794 5794 5794 5794 5793 5793 5793 5793 5793 5793 5793 5793 5793 5793 5793 5793 5793 5793 5792 5791 5791 5790 5789 5788 5788 5787 5785 5784
5789 5790 5790 5790 5791 5792 5792 5792 5792 5793 5793 5793 5792 5792 5792 5792 5791 5791 5791 5791 5790 5790 5790 5790 5790 5791 5791 5791 5791 5791 5790 5790 5789 5789 5788 5788 5787 5786 5785 5784 5783 5782
5786 5787 5787 5788 5788 5789 5790 5790 5790 5790 5790 5790 5790 5789 5789 5789 5789 5789 5788 5788 5788 5788 5788 5788 5788 5788 5788 5789 5789 5788 5788 5787 5787 5787 5786 5785 5784 5783 5783 5781 5780 5779
5784 5785 5785 5785 5786 5786 5787 5787 5787 5788 5788 5788 5787 5787 5787 5786 5787 5786 5786 5786 5786 5785 5785 5785 5785 5786 5786 5786 5786 5785 5785 5784 5784 5784 5783 5782 5781 5781 5780 5779 5777 5776
5781 5782 5782 5782 5783 5784 5784 5785 5785 5785 5785 5785 5785 5784 5784 5784 5784 5784 5784 5783 5783 5783 5783 5783 5783 5783 5783 5783 5783 5782 5782 5782 5781 5781 5780 5779 5778 5778 5777 5776 5775 5773
5779 5779 5779 5780 5780 5781 5781 5782 5782 5783 5782 5782 5782 5782 5781 5781 5782 5781 5781 5781 5780 5780 5780 5780 5780 5780 5780 5781 5780 5779 5779 5779 5778 5778 5777 5776 5776 5775 5774 5773 5772 5770
5776 5776 5776 5777 5778 5778 5779 5779 5780 5780 5780 5779 5779 5779 5779 5779 5779 5779 5778 5778 5777 5777 5777 5777 5777 5777 5778 5778 5777 5776 5776 5776 5775 5775 5774 5774 5773 5772 5771 5770 5769 5767
5772 5772 5773 5774 5775 5775 5776 5776 5777 5777 5777 5777 5776 5776 5776 5776 5776 5776 5775 5775 5775 5775 5774 5774 5775 5775 5775 5775 5774 5773 5773 5773 5773 5772 5772 5771 5770 5769 5767 5767 5765 5764
5768 5769 5770 5771 5772 5773 5773 5773 5774 5774 5774 5774 5774 5773 5773 5773 5773 5773 5773 5773 5772 5772 5772 5772 5772 5772 5772 5772 5771 5771 5770 5771 5770 5770 5769 5768 5767 5765 5764 5763 5762 5760
5765 5766 5767 5768 5769 5769 5770 5770 5771 5771 5771 5771 5771 5770 5770 5770 5770 5770 5770 5770 5770 5770 5770 5770 5770 5769 5769 5769 5768 5768 5768 5768 5767 5766 5765 5764 5763 5762 5761 5760 5758 5756
5762 5763 5764 5765 5765 5766 5767 5768 5768 5768 5768 5768 5768 5768 5767 5767 5767 5767 5767 5768 5768 5767 5767 5767 5767 5767 5766 5766 5765 5765 5765 5764 5764 5762 5762 5760 5759 5758 5757 5756 5754 5752
5759 5760 5761 5761 5762 5763 5764 5764 5765 5765 5765 5765 5765 5764 5764 5764 5764 5764 5765 5765 5765 5765 5765 5764 5764 5764 5763 5763 5762 5762 5762 5761 5760 5759 5758 5757 5755 5754 5752 5751 5750 5748
5755 5757 5758 5758 5759 5760 5760 5761 5762 5762 5762 5762 5761 5761 5761 5761 5761 5761 5762 5762 5762 5762 5762 5761 5761 5761 5760 5760 5759 5759 5758 5758 5757 5756 5755 5754 5752 5750 5748 5747 5746 5744
5752 5753 5754 5755 5755 5756 5757 5758 5759 5758 5758 5758 5758 5758 5758 5758 5758 5758 5759 5759 5759 5759 5759 5758 5758 5758 5757 5757 5756 5756 5755 5754 5754 5752 5751 5750 5748 5745 5743 5743 5742 5740
5749 5750 5751 5751 5752 5753 5754 5755 5755 5755 5755 5755 5755 5755 5755 5755 5755 5755 5756 5756 5756 5756 5755 5755 5754 5754 5754 5754 5753 5753 5752 5751 5750 5749 5747 5746 5744 5742 5740 5739 5738 5736
5745 5746 5747 5747 5748 5749 5750 5751 5751 5752 5752 5752 5751 5751 5752 5752 5752 5752 5753 5753 5753 5752 5752 5751 5751 5750 5750 5750 5750 5749 5748 5747 5746 5745 5744 5742 5740 5739 5737 5736 5734 5732
5742 5742 5743 5744 5744 5745 5747 5748 5748 5749 5750 5749 5748 5748 5748 5749 5749 5749 5750 5750 5749 5749 5748 5748 5747 5746 5746 5747 5746 5745 5745 5743 5742 5741 5740 5739 5737 5735 5734 5732 5730 5728
5738 5739 5740 5740 5740 5742 5743 5744 5745 5746 5746 5745 5744 5744 5745 5745 5746 5746 5746 5746 5745 5745 5744 5744 5743 5742 5742 5743 5742 5741 5741 5740 5738 5737 5736 5735 5733 5731 5729 5727 5725 5724
5734 5735 5736 5737 5737 5738 5739 5740 5741 5742 5742 5741 5740 5741 5742 5742 5742 5743 5743 5742 5742 5741 5740 5740 5739 5739 5739 5738 5738 5737 5736 5735 5734 5733 5732 5730 5728 5727 5725 5723 5721 5719
5730 5731 5733 5733 5733 5733 5735 5737 5738 5738 5738 5737 5737 5737 5738 5738 5738 5739 5739 5738 5737 5737 5737 5736 5735 5735 5735 5735 5734 5733 5732 5731 5730 5729 5728 5726 5724 5723 5721 5719 5717 5715
Wind_Speed
23 21 19 18 17 17 17 16 15 15 14 13 14 15 15 16 16 16 16 15 15 15 15 14 14 14 13 12 12 12 13 14 15 16 16 16 16 17 18 19 19 19
22 20 18 18 18 17 17 16 15 15 15 14 14 15 16 16 16 16 16 15 15 16 16 15 15 15 14 13 13 13 14 15 15 16 16 16 17 18 19 19 19 20
20 18 18 19 18 18 17 15 15 15 15 15 15 15 16 16 16 15 15 15 16 16 16 16 15 15 14 13 14 14 15 16 16 17 17 17 18 19 19 20 20 21
20 19 19 19 19 18 16 15 15 15 16 15 15 16 16 16 15 15 15 15 16 16 16 16 15 15 14 14 15 15 16 17 17 18 18 18 19 20 20 21 22 22
20 19 19 20 19 17 15 14 15 15 15 15 15 16 16 16 15 15 15 15 15 15 15 16 16 16 15 15 15 16 17 18 18 18 19 19 20 21 22 22 23 24
21 20 20 20 19 17 15 14 14 15 15 16 16 16 17 16 16 16 16 15 15 15 15 16 16 16 16 16 17 18 18 19 19 19 19 20 21 22 23 24 24 25
22 21 20 20 19 17 15 14 14 15 15 16 16 16 17 17 17 16 16 15 15 15 15 16 16 17 17 17 18 19 19 19 19 20 20 21 22 23 24 24 25 26
22 21 20 20 19 17 15 13 14 15 16 16 16 17 17 17 17 17 16 15 16 15 15 16 16 17 17 18 19 19 20 20 20 20 21 22 23 24 25 25 26 27
22 21 21 20 19 17 15 14 14 16 16 17 17 17 17 18 17 17 16 16 16 16 16 16 17 18 18 18 19 20 20 21 21 21 22 24 25 25 25 26 27 29
22 21 21 20 19 18 15 14 15 16 17 18 18 18 18 18 18 18 17 16 16 16 16 16 17 18 18 19 19 21 22 22 22 23 24 25 25 26 26 27 28 30
22 22 21 20 19 18 16 15 15 16 17 18 18 19 19 19 19 18 18 17 16 16 16 17 18 18 19 19 20 22 23 23 23 24 25 26 27 27 28 28 29 30
22 22 21 20 19 18 16 15 16 16 18 19 19 19 20 19 19 19 19 18 17 16 17 17 18 19 19 20 21 23 24 24 25 26 26 27 28 29 29 29 30 31
23 23 22 20 19 18 16 15 16 16 18 19 19 19 20 20 20 19 19 18 18 18 18 18 19 19 20 21 22 24 25 26 26 27 28 28 29 30 30 30 31 32
23 24 23 21 18 17 16 16 16 16 18 20 19 19 20 20 20 20 19 19 19 19 19 19 19 20 21 22 24 26 27 27 28 28 29 29 30 31 31 31 31 32
25 25 23 20 18 17 16 16 16 17 19 20 19 19 20 20 20 20 20 20 20 20 20 19 20 20 22 23 25 27 27 28 28 29 29 30 31 32 32 32 32 33
26 26 23 20 19 18 17 17 17 18 19 20 19 19 20 20 21 21 21 21 21 21 21 20 20 21 22 23 25 27 27 27 28 29 30 30 31 32 32 32 32 33
27 26 23 21 20 19 17 17 18 19 20 20 19 19 20 21 22 23 23 22 22 22 22 21 22 22 23 24 26 27 27 28 29 30 30 31 32 33 32 32 33 33
28 26 23 21 20 19 18 18 19 19 20 19 19 20 21 22 23 24 24 23 23 23 23 23 23 24 24 25 27 27 27 28 30 31 31 33 33 34 34 33 32 33
29 26 23 22 20 19 19 19 19 20 20 20 20 20 21 22 24 25 25 25 24 24 24 24 25 25 25 26 27 28 28 28 30 30 31 33 34 36 36 33 30 32
29 26 23 22 20 19 19 19 20 21 20 20 20 20 22 24 25 26 27 26 26 26 25 26 26 26 27 27 28 28 29 29 29 30 31 32 34 34 32 29 29 33
30 26 24 22 21 20 20 20 21 21 20 20 21 21 23 25 26 27 27 27 27 27 27 27 28 28 28 28 28 29 29 29 30 30 31 31 32 32 31 31 34 36
30 27 25 24 23 22 21 21 22 22 20 21 23 23 24 26 27 28 28 28 28 27 28 28 29 30 30 29 28 29 29 30 31 31 31 31 32 33 35 36 37 37
31 28 26 26 25 23 21 22 24 24 22 23 24 25 26 27 28 29 28 27 27 27 28 29 29 31 31 29 29 29 30 30 30 31 31 32 34 36 37 37 38 38
31 30 28 27 26 25 23 23 24 24 25 26 26 26 27 28 29 29 28 28 28 28 29 29 30 31 31 30 29 29 29 30 31 31 32 34 36 38 38 38 39 39
33 31 29 28 28 27 25 25 25 26 27 28 29 28 29 29 30 29 28 29 29 29 29 30 30 31 30 29 29 29 30 31 32 34 35 36 37 38 38 39 39 40
33 30 28 29 29 27 26 26 27 26 27 29 31 31 30 30 29 28 28 29 30 29 29 30 30 30 29 28 29 30 32 34 35 35 36 36 36 37 37 38 39 39
Wind_Direction
255 252 253 257 261 266 270 272 272 269 268 273 278 282 284 286 288 288 289 289 286 282 277 273 272 274 277 276 271 266 265 268 272 277 282 286 290 293 295 297 300 303
251 249 250 255 259 264 268 269 267 263 263 267 273 278 281 283 285 285 286 286 283 279 276 274 272 274 276 272 267 265 266 270 274 279 283 288 290 292 294 297 300 302
247 245 248 253 257 262 265 265 263 260 262 264 270 276 279 281 282 282 284 283 280 277 275 274 273 274 273 268 265 265 268 272 275 280 285 288 290 291 294 297 298 301
243 242 246 252 257 261 262 261 260 261 263 266 270 274 277 280 281 281 282 281 278 276 274 273 273 273 272 266 265 266 268 272 275 281 285 287 289 292 295 296 297 301
240 241 246 253 257 260 259 258 259 261 265 268 271 274 277 279 279 279 280 280 279 276 273 273 273 273 271 266 264 266 268 271 275 280 284 286 289 292 294 295 297 301
241 243 248 254 256 257 257 256 257 260 265 269 272 275 277 278 277 277 278 280 279 276 272 272 272 272 269 264 263 265 268 272 276 280 284 287 290 291 293 295 298 301
244 246 250 253 254 255 255 254 256 259 265 270 273 276 277 278 277 277 279 280 279 275 272 271 271 270 266 262 263 265 269 272 276 280 285 288 289 290 292 295 297 300
246 248 250 252 253 255 255 254 254 259 266 271 275 278 279 279 278 280 282 283 279 275 271 270 270 268 264 262 263 266 270 273 277 282 285 287 288 290 292 294 297 299
247 248 248 251 253 255 256 253 253 259 266 272 276 279 281 280 279 281 283 283 278 272 269 268 267 266 264 264 266 269 271 274 278 282 284 286 288 290 291 293 296 299
246 245 246 249 253 257 257 253 253 259 267 273 277 279 280 280 279 280 282 282 278 270 265 265 265 265 265 267 269 271 273 276 279 281 283 285 287 289 291 293 296 299
244 244 246 249 254 258 258 255 255 260 268 273 276 278 279 278 277 277 279 281 279 272 265 263 264 266 268 269 271 272 274 276 278 280 282 285 287 289 291 294 297 300
244 246 248 251 256 259 259 257 257 262 269 273 275 276 277 276 274 274 277 281 281 275 268 264 265 267 269 270 272 273 274 275 277 279 282 284 287 290 293 296 299 300
246 248 251 255 258 258 258 257 257 263 269 272 274 275 275 274 272 273 276 280 281 277 271 267 266 268 270 271 272 273 274 274 276 279 282 285 289 292 294 297 299 300
248 250 254 257 258 257 256 255 256 262 268 271 273 275 274 273 272 272 276 279 279 277 273 270 269 269 270 271 272 273 273 275 278 281 284 288 291 293 295 296 298 299
249 252 256 258 259 258 255 252 254 261 268 271 273 274 273 272 270 271 273 277 278 276 275 272 271 271 271 271 272 273 275 278 281 284 287 290 292 293 294 296 297 297
249 254 258 259 260 257 251 249 254 261 267 270 271 272 271 270 269 270 272 275 276 276 276 274 272 272 272 272 273 275 277 280 283 285 287 288 289 291 293 294 295 295
250 255 258 259 258 254 249 248 253 260 264 267 269 270 269 269 269 270 272 274 275 276 276 276 274 273 274 275 276 277 279 282 282 284 285 287 288 290 291 292 293 293
251 255 257 257 256 252 248 249 253 258 261 264 266 267 267 269 270 272 272 273 274 275 276 277 276 276 276 277 278 280 282 283 284 285 287 289 290 290 290 291 291 291
251 253 254 255 253 251 250 251 253 256 258 261 263 266 268 269 270 272 273 272 273 274 276 277 277 277 278 279 280 282 284 285 287 288 290 291 292 292 292 291 289 292
250 252 252 251 250 250 252 253 254 255 257 260 263 265 267 268 269 271 272 272 273 273 275 276 277 278 279 279 281 283 286 288 290 291 292 293 296 299 298 294 293 296
250 250 249 247 249 251 253 253 253 254 257 261 264 264 265 267 269 270 270 271 272 273 274 275 277 278 279 280 282 285 288 289 289 290 292 295 298 300 299 298 298 299
249 249 247 246 247 249 250 254 255 254 257 261 264 264 265 267 268 269 270 271 272 273 273 275 276 277 278 280 283 285 286 287 287 288 291 295 296 296 296 297 298 299
247 247 245 246 248 249 253 261 262 258 259 265 267 267 268 268 269 270 270 271 271 271 271 272 273 275 277 280 282 283 284 285 286 288 291 294 295 295 296 297 298 300
246 246 245 246 250 252 257 266 268 265 265 268 268 269 270 270 270 271 271 271 270 269 269 271 272 274 278 280 281 283 286 287 288 290 292 294 295 296 297 297 298 300
243 245 246 249 253 256 261 269 273 271 269 267 267 270 273 272 271 270 270 271 270 269 270 271 273 275 278 280 282 285 287 289 290 292 293 293 294 295 296 296 297 298
242 245 249 252 257 263 269 273 275 274 270 267 268 272 273 271 268 267 267 269 271 271 272 272 273 275 277 279 283 286 288 289 291 292 292 292 293 294 295 295 296 297